Regional Weather Roundup
Issued by NWS Sioux Falls, SD

Home | Current Version | Previous Version | Graphics & Text | Print | Product List | Glossary Off
Versions: 1 2 3 4 5 6 7 8 9 10 11 12 13 14 15 16 17 18 19 20 21 22 23 24 25 26 27 28 29 30 31 32 33 34 35 36 37 38 39 40 41 42 43 44 45 46 47 48 49 50

000
ASUS43 KFSD 061702
RWRFSD

WEATHER ROUNDUP FOR SE SOUTH DAKOTA/SW MINNESOTA/NW IOWA
NATIONAL WEATHER SERVICE SIOUX FALLS SD
1200 PM CDT MON JUL 06 2015

NOTE: "FAIR" INDICATES FEW OR NO CLOUDS BELOW 12,000 FEET WITH NO
SIGNIFICANT WEATHER AND OR OBSTRUCTIONS TO VISIBILITY.


SDZ038>040-050-052>070-061800-
SOUTHEAST SOUTH DAKOTA

CITY           SKY/WX    TMP DP  RH WIND       PRES   REMARKS
BROOKINGS      CLOUDY    64  61  88 N14G21    30.02R
CHAMBERLAIN    NOT AVBL
HURON          CLOUDY    72  62  71 N21G26    30.04R HAZE
MADISON        FAIR      66  66 100 N16       30.01S
MITCHELL       PTSUNNY   73  61  65 MISG      30.03R HAZE
SIOUX FALLS    CLOUDY    70  63  78 N17G28    29.97R HAZE
WINNER         CLOUDY    73  57  57 N17G24    30.11R HAZE
YANKTON        MOSUNNY   70  63  78 N20G25    29.96R
$$

MNZ071-072-080-081-089-090-097-098-061800-
SOUTHWEST MINNESOTA

CITY           SKY/WX    TMP DP  RH WIND       PRES   REMARKS
FAIRMONT       CLOUDY    70  63  78 N22G30    29.88R
JACKSON        CLOUDY    64  61  88 N12G25    29.94R FOG
MARSHALL       CLOUDY    66  59  77 N13G21    29.96R
PIPESTONE      CLOUDY    66  61  82 N14G20    29.98R HAZE
REDWOOD FALLS  CLOUDY    67  60  78 N12G21    29.95R HAZE
TRACY          CLOUDY    69  65  88 N17G23    29.97R FOG
WINDOM         CLOUDY    70  61  73 N22G29    29.93R HAZE
WORTHINGTON    CLOUDY    70  61  73 N23G30    29.95R
$$

IAZ001>003-012>014-020>022-031-032-NEZ013-014-SDZ071-061800-
NORTHWEST IOWA

CITY           SKY/WX    TMP DP  RH WIND       PRES   REMARKS
DENISON        CLOUDY    73  70  88 VRB5      29.89S
ESTHERVILLE    LGT RAIN  69  67  93 N20G32    29.90  FOG
SIOUX CITY     LGT RAIN  74  69  85 N13       29.91R
SPENCER        LGT RAIN  70  67  90 N22G29    29.91R FOG
$$

ABBREVIATIONS USED IN REMARKS
   TC - TEMPERATURE IN CELSIUS
  WCI - WIND CHILL INDEX
   HX - HEAT INDEX
  VSB - VISIBILITY




USA.gov is the U.S. government's official web portal to all federal, state and local government web resources and services.